Terminal Aerodrome Forecast
Issued by NWS

Home | Current Version | Previous Version | Text Only | Print | Product List | Glossary On
Versions: 1 2 3 4 5 6 7 8 9 10 11 12 13 14 15 16 17 18 19 20 21 22 23 24 25 26 27 28 29 30 31 32 33 34 35 36 37 38 39 40 41 42 43 44 45 46 47 48 49 50
000
FTUS41 KCTP 302032 AAA
TAFBFD
TAF AMD
KBFD 302032Z 3021/3118 18008KT P6SM FEW025 SCT060 BKN120
     FM310300 17003KT 5SM BR SCT120
     FM311000 20004KT 3SM -RA BR OVC005
     FM311600 24006KT 6SM HZ VCSH BKN015=

USA.gov is the U.S. government's official web portal to all federal, state and local government web resources and services.